TimePDT,TemperatureF,Dew PointF,Humidity,Sea Level PressureIn,VisibilityMPH,Wind Direction,Wind SpeedMPH,Gust SpeedMPH,PrecipitationIn,Events,Conditions,WindDirDegrees,DateUTC
12:15 AM,39.2,21.2,49,29.92,10.0,WNW,5.8,-,N/A,,Clear,300,2012-10-12 07:15:00
12:35 AM,35.6,21.2,56,29.92,10.0,North,6.9,-,N/A,,Clear,360,2012-10-12 07:35:00
12:55 AM,37.4,21.2,52,29.93,10.0,NW,3.5,-,N/A,,Clear,310,2012-10-12 07:55:00
1:15 AM,37.4,19.4,48,29.92,10.0,NNW,4.6,-,N/A,,Clear,340,2012-10-12 08:15:00
1:35 AM,33.8,23.0,65,29.93,10.0,North,4.6,-,N/A,,Clear,10,2012-10-12 08:35:00
1:55 AM,32.0,21.2,64,29.93,10.0,North,6.9,-,N/A,,Clear,360,2012-10-12 08:55:00
2:15 AM,32.0,19.4,60,29.95,10.0,NNW,4.6,-,N/A,,Clear,330,2012-10-12 09:15:00
2:35 AM,30.2,17.6,60,29.95,10.0,ENE,4.6,-,N/A,,Clear,70,2012-10-12 09:35:00
2:55 AM,30.2,19.4,64,29.95,10.0,North,4.6,-,N/A,,Clear,10,2012-10-12 09:55:00
3:15 AM,30.2,21.2,69,29.95,10.0,SE,4.6,-,N/A,,Clear,130,2012-10-12 10:15:00
3:55 AM,28.4,19.4,69,29.96,10.0,SE,6.9,-,N/A,,Clear,130,2012-10-12 10:55:00
4:15 AM,30.2,23.0,75,29.97,10.0,SE,5.8,-,N/A,,Clear,130,2012-10-12 11:15:00
4:35 AM,32.0,26.6,80,29.97,10.0,East,4.6,-,N/A,,Clear,100,2012-10-12 11:35:00
4:55 AM,28.4,24.8,86,29.97,10.0,Calm,Calm,-,N/A,,Clear,0,2012-10-12 11:55:00
5:15 AM,28.4,21.2,74,29.97,10.0,Calm,Calm,-,N/A,,Clear,0,2012-10-12 12:15:00
5:35 AM,26.6,21.2,80,29.98,10.0,North,5.8,-,N/A,,Clear,10,2012-10-12 12:35:00
5:55 AM,26.6,21.2,80,29.98,10.0,Calm,Calm,-,N/A,,Clear,0,2012-10-12 12:55:00
6:15 AM,26.6,19.4,74,29.98,10.0,North,5.8,-,N/A,,Clear,10,2012-10-12 13:15:00
6:35 AM,26.6,21.2,80,29.98,10.0,NE,5.8,-,N/A,,Clear,50,2012-10-12 13:35:00
7:15 AM,28.4,23.0,80,29.99,10.0,NNE,3.5,-,N/A,,Clear,20,2012-10-12 14:15:00
7:35 AM,26.6,21.2,80,30.00,10.0,NE,8.1,-,N/A,,Clear,50,2012-10-12 14:35:00
7:55 AM,30.2,24.8,80,30.00,10.0,East,4.6,-,N/A,,Clear,80,2012-10-12 14:55:00
8:15 AM,35.6,24.8,65,30.01,10.0,Calm,Calm,-,N/A,,Clear,0,2012-10-12 15:15:00
8:35 AM,37.4,26.6,65,30.02,10.0,Calm,Calm,-,N/A,,Clear,0,2012-10-12 15:35:00
9:15 AM,44.6,33.8,66,30.02,10.0,SSE,4.6,-,N/A,,Clear,150,2012-10-12 16:15:00
9:35 AM,48.2,37.4,66,30.03,10.0,SSE,5.8,-,N/A,,Clear,160,2012-10-12 16:35:00
10:15 AM,53.6,39.2,58,30.03,10.0,SSE,9.2,-,N/A,,Clear,160,2012-10-12 17:15:00
10:35 AM,53.6,39.2,58,30.03,10.0,South,8.1,-,N/A,,Clear,180,2012-10-12 17:35:00
10:55 AM,55.4,39.2,54,30.03,10.0,SSE,9.2,-,N/A,,Clear,160,2012-10-12 17:55:00
11:35 AM,57.2,37.4,48,30.03,10.0,SSE,8.1,-,N/A,,Clear,160,2012-10-12 18:35:00
11:55 AM,60.8,37.4,42,30.03,10.0,South,9.2,-,N/A,,Clear,170,2012-10-12 18:55:00
12:15 PM,60.8,37.4,42,30.03,10.0,South,9.2,-,N/A,,Clear,170,2012-10-12 19:15:00
12:35 PM,62.6,35.6,37,30.03,10.0,SSE,10.4,-,N/A,,Clear,150,2012-10-12 19:35:00
12:55 PM,64.4,33.8,32,30.02,10.0,South,9.2,-,N/A,,Clear,180,2012-10-12 19:55:00
1:15 PM,66.2,35.6,32,30.01,10.0,South,11.5,-,N/A,,Clear,180,2012-10-12 20:15:00
1:35 PM,66.2,33.8,30,30.00,10.0,South,11.5,-,N/A,,Clear,170,2012-10-12 20:35:00
1:55 PM,68.0,32.0,26,30.00,10.0,SSE,9.2,18.4,N/A,,Clear,150,2012-10-12 20:55:00
2:15 PM,69.8,32.0,25,29.99,10.0,South,10.4,-,N/A,,Clear,170,2012-10-12 21:15:00
2:35 PM,69.8,30.2,23,29.99,10.0,South,11.5,-,N/A,,Clear,170,2012-10-12 21:35:00
3:15 PM,71.6,21.2,15,29.99,10.0,WSW,17.3,-,N/A,,Clear,250,2012-10-12 22:15:00
3:55 PM,71.6,24.8,17,30.00,10.0,WSW,18.4,21.9,N/A,,Clear,250,2012-10-12 22:55:00
4:15 PM,71.6,26.6,19,30.01,10.0,WSW,13.8,19.6,N/A,,Clear,240,2012-10-12 23:15:00
4:35 PM,69.8,24.8,18,30.01,10.0,WSW,12.7,20.7,N/A,,Clear,250,2012-10-12 23:35:00
4:55 PM,69.8,24.8,18,30.02,10.0,West,15.0,19.6,N/A,,Clear,260,2012-10-12 23:55:00
5:15 PM,64.4,26.6,24,30.03,10.0,West,15.0,-,N/A,,Clear,260,2012-10-13 00:15:00
5:35 PM,64.4,28.4,26,30.03,10.0,WSW,9.2,-,N/A,,Clear,240,2012-10-13 00:35:00
5:55 PM,62.6,28.4,27,30.04,10.0,SW,9.2,-,N/A,,Clear,230,2012-10-13 00:55:00
6:15 PM,60.8,33.8,36,30.05,10.0,SSW,9.2,-,N/A,,Clear,210,2012-10-13 01:15:00
6:35 PM,60.8,35.6,39,30.06,10.0,SSW,12.7,17.3,N/A,,Scattered Clouds,210,2012-10-13 01:35:00
7:15 PM,57.2,35.6,44,30.08,10.0,SSW,13.8,-,N/A,,Mostly Cloudy,210,2012-10-13 02:15:00
7:35 PM,57.2,35.6,44,30.09,10.0,SW,12.7,-,N/A,,Overcast,220,2012-10-13 02:35:00
7:55 PM,55.4,35.6,47,30.11,10.0,SW,10.4,-,N/A,,Mostly Cloudy,220,2012-10-13 02:55:00
8:15 PM,51.8,37.4,58,30.12,10.0,SE,12.7,-,N/A,,Partly Cloudy,130,2012-10-13 03:15:00
8:35 PM,51.8,37.4,58,30.13,10.0,SSE,10.4,-,N/A,,Clear,150,2012-10-13 03:35:00
8:55 PM,51.8,37.4,58,30.14,10.0,South,13.8,18.4,N/A,,Scattered Clouds,170,2012-10-13 03:55:00
9:15 PM,51.8,39.2,62,30.15,10.0,SSE,12.7,-,N/A,,Mostly Cloudy,160,2012-10-13 04:15:00
9:35 PM,48.2,37.4,66,30.16,10.0,SE,15.0,19.6,N/A,,Partly Cloudy,140,2012-10-13 04:35:00
9:55 PM,48.2,39.2,71,30.16,10.0,SSE,15.0,-,N/A,,Scattered Clouds,150,2012-10-13 04:55:00
10:15 PM,48.2,39.2,71,30.17,10.0,SSE,16.1,20.7,N/A,,Mostly Cloudy,160,2012-10-13 05:15:00
10:55 PM,46.4,37.4,71,30.18,10.0,SSE,16.1,-,N/A,,Scattered Clouds,150,2012-10-13 05:55:00
11:35 PM,46.4,37.4,71,30.21,10.0,SSE,13.8,-,N/A,,Partly Cloudy,150,2012-10-13 06:35:00
11:55 PM,46.4,37.4,71,30.21,10.0,SSE,12.7,-,N/A,,Mostly Cloudy,150,2012-10-13 06:55:00